Terminal Aerodrome Forecast
Issued by NWS Chicago, IL

Home | Current Version | Previous Version | Text Only | Print | Product List | Glossary On
Versions: 1 2 3 4 5 6 7 8 9 10 11 12 13 14 15 16 17 18 19 20 21 22 23 24 25 26 27 28 29 30 31
000
FTUS43 KLOT 291404 AAA
TAFRFD
TAF AMD
KRFD 291404Z 2914/3012 20012KT P6SM VCSH SCT040 BKN100
     FM291500 19012G17KT P6SM VCTS BKN040CB
      TEMPO 2916/2919 2SM TSRA SCT020 OVC035CB
     FM292000 22014G21KT P6SM BKN035
     FM300000 24007KT P6SM VCTS SCT045CB BKN250
     FM300500 23008KT P6SM VCSH BKN045
     FM301000 35008KT 4SM SHRA VCTS SCT020 OVC040CB=

USA.gov is the U.S. government's official web portal to all federal, state and local government web resources and services.